When you browse on this site, cookies collect data to enhance your experience and personalize the content and advertising you see.
Visit our Privacy Policy to learn more. By continuing to use the site, you agree to this use of cookies and data.
  • în România
  • Lista ţărilor
  • Pe 7 zile
  • Temperatura apei
  • Hartă satelitară
  • Meteo pe hartă
  • Widget-uri
  • user-avatar
    Intrare

    Meteo pe oră la Austin

    Astăzi, 15 Decembrie, Sâmbătă

    Timp Temperatura Precipitaţii Vânt Presiune Umiditate
    00:00 +7°C° 0 mm 5 m/s 748 mmHg 48%
    01:00 +7°C° 0 mm 5 m/s 748 mmHg 48%
    02:00 +7°C° 0 mm 5 m/s 748 mmHg 49%
    03:00 +6°C° 0 mm 5 m/s 748 mmHg 49%
    04:00 +6°C° 0 mm 5 m/s 749 mmHg 49%
    05:00 +5°C° 0 mm 4 m/s 749 mmHg 53%
    06:00 +5°C° 0 mm 4 m/s 749 mmHg 51%
    07:00 +6°C° 0 mm 4 m/s 750 mmHg 49%
    08:00 +7°C° 0 mm 5 m/s 750 mmHg 48%
    09:00 +9°C° 0 mm 5 m/s 750 mmHg 44%
    10:00 +12°C° 0 mm 4 m/s 750 mmHg 40%
    11:00 +14°C° 0 mm 4 m/s 750 mmHg 37%
    12:00 +15°C° 0 mm 4 m/s 750 mmHg 36%
    13:00 +17°C° 0 mm 4 m/s 749 mmHg 34%
    14:00 +17°C° 0 mm 3 m/s 749 mmHg 33%
    15:00 +16°C° 0 mm 3 m/s 749 mmHg 37%
    16:00 +14°C° 0 mm 2 m/s 749 mmHg 41%
    17:00 +12°C° 0 mm 2 m/s 749 mmHg 46%
    18:00 +12°C° 0 mm 2 m/s 749 mmHg 46%
    19:00 +10°C° 0 mm 2 m/s 750 mmHg 47%
    20:00 +10°C° 0 mm 2 m/s 750 mmHg 47%
    21:00 +10°C° 0 mm 1 m/s 750 mmHg 48%
    22:00 +10°C° 0 mm 1 m/s 750 mmHg 48%
    23:00 +10°C° 0 mm 1 m/s 751 mmHg 49%

    Mâine, 16 Decembrie, Duminică

    Timp Temperatura Precipitaţii Vânt Presiune Umiditate
    00:00 +9°C° 0 mm 1 m/s 751 mmHg 48%
    01:00 +9°C° 0 mm 1 m/s 750 mmHg 48%
    02:00 +8°C° 0 mm 0 m/s 750 mmHg 47%
    03:00 +8°C° 0 mm 0 m/s 750 mmHg 47%
    04:00 +8°C° 0 mm 0 m/s 751 mmHg 48%
    05:00 +7°C° 0 mm 0 m/s 751 mmHg 48%
    06:00 +9°C° 0 mm 0 m/s 751 mmHg 46%
    07:00 +11°C° 0 mm 1 m/s 752 mmHg 45%
    08:00 +13°C° 0 mm 1 m/s 752 mmHg 43%
    09:00 +14°C° 0 mm 1 m/s 752 mmHg 40%
    10:00 +16°C° 0 mm 1 m/s 752 mmHg 36%
    11:00 +19°C° 0 mm 1 m/s 752 mmHg 32%
    12:00 +20°C° 0 mm 1 m/s 751 mmHg 33%
    13:00 +20°C° 0 mm 1 m/s 751 mmHg 33%
    14:00 +21°C° 0 mm 1 m/s 750 mmHg 34%
    15:00 +19°C° 0 mm 1 m/s 750 mmHg 38%
    16:00 +16°C° 0 mm 1 m/s 750 mmHg 42%
    17:00 +14°C° 0 mm 1 m/s 750 mmHg 47%
    18:00 +14°C° 0 mm 1 m/s 750 mmHg 48%
    19:00 +14°C° 0 mm 1 m/s 750 mmHg 49%
    20:00 +13°C° 0 mm 1 m/s 751 mmHg 50%
    21:00 +13°C° 0 mm 1 m/s 751 mmHg 50%
    22:00 +13°C° 0 mm 1 m/s 751 mmHg 51%
    23:00 +13°C° 0 mm 1 m/s 751 mmHg 51%

    Poimâine, 17 Decembrie, Luni

    Timp Temperatura Precipitaţii Vânt Presiune Umiditate
    00:00 +12°C° 0 mm 1 m/s 750 mmHg 51%
    01:00 +12°C° 0 mm 1 m/s 750 mmHg 51%
    02:00 +12°C° 0 mm 1 m/s 750 mmHg 51%
    03:00 +12°C° 0 mm 1 m/s 750 mmHg 50%
    04:00 +12°C° 0 mm 1 m/s 750 mmHg 50%
    05:00 +12°C° 0 mm 1 m/s 750 mmHg 49%
    06:00 +13°C° 0 mm 1 m/s 750 mmHg 49%
    07:00 +14°C° 0 mm 1 m/s 751 mmHg 48%
    08:00 +15°C° 0 mm 1 m/s 751 mmHg 48%
    09:00 +16°C° 0 mm 1 m/s 751 mmHg 45%
    10:00 +18°C° 0 mm 1 m/s 751 mmHg 41%
    11:00 +19°C° 0 mm 1 m/s 750 mmHg 38%
    12:00 +19°C° 0 mm 1 m/s 750 mmHg 38%
    13:00 +19°C° 0 mm 1 m/s 749 mmHg 39%
    14:00 +17°C° 0 mm 0 m/s 748 mmHg 39%
    15:00 +18°C° 0 mm 1 m/s 748 mmHg 43%
    16:00 +16°C° 0 mm 1 m/s 748 mmHg 46%
    17:00 +15°C° 0 mm 2 m/s 748 mmHg 50%
    18:00 +14°C° 0 mm 1 m/s 748 mmHg 54%
    19:00 +13°C° 0 mm 1 m/s 748 mmHg 58%
    20:00 +12°C° 0 mm 1 m/s 748 mmHg 62%
    21:00 +12°C° 0 mm 1 m/s 748 mmHg 64%
    22:00 +11°C° 0 mm 1 m/s 748 mmHg 67%
    23:00 +11°C° 0 mm 1 m/s 748 mmHg 69%

    18 Decembrie, Marţi

    Timp Temperatura Precipitaţii Vânt Presiune Umiditate
    00:00 +11°C° 0 mm 1 m/s 748 mmHg 73%
    01:00 +11°C° 0 mm 1 m/s 747 mmHg 78%
    02:00 +10°C° 0 mm 1 m/s 747 mmHg 82%
    03:00 +10°C° 0 mm 1 m/s 747 mmHg 85%
    04:00 +10°C° 0 mm 1 m/s 747 mmHg 89%
    05:00 +10°C° 0 mm 1 m/s 747 mmHg 92%
    06:00 +11°C° 0 mm 1 m/s 747 mmHg 91%
    07:00 +12°C° 0 mm 1 m/s 747 mmHg 90%
    08:00 +13°C° 0 mm 1 m/s 747 mmHg 88%
    09:00 +14°C° 0 mm 2 m/s 747 mmHg 85%
    10:00 +15°C° 0 mm 2 m/s 747 mmHg 81%
    11:00 +17°C° 0 mm 3 m/s 747 mmHg 78%
    12:00 +17°C° 0 mm 3 m/s 746 mmHg 80%
    13:00 +16°C° 0 mm 2 m/s 745 mmHg 82%
    14:00 +16°C° 0 mm 2 m/s 745 mmHg 84%
    15:00 +16°C° 0 mm 2 m/s 745 mmHg 87%
    16:00 +15°C° 0 mm 2 m/s 745 mmHg 89%
    17:00 +15°C° 0 mm 2 m/s 744 mmHg 92%
    18:00 +15°C° 0.1 mm 2 m/s 745 mmHg 93%
    19:00 +15°C° 0.1 mm 2 m/s 745 mmHg 94%
    20:00 +15°C° 0.1 mm 2 m/s 745 mmHg 95%
    21:00 +15°C° 0.4 mm 2 m/s 745 mmHg 95%
    22:00 +15°C° 0.4 mm 2 m/s 745 mmHg 95%
    23:00 +15°C° 0.4 mm 2 m/s 744 mmHg 96%

    19 Decembrie, Miercuri

    Timp Temperatura Precipitaţii Vânt Presiune Umiditate
    00:00 +15°C° 0.7 mm 2 m/s 744 mmHg 96%
    01:00 +15°C° 0.7 mm 2 m/s 744 mmHg 96%
    02:00 +15°C° 0.7 mm 2 m/s 743 mmHg 97%
    03:00 +15°C° 0.1 mm 1 m/s 743 mmHg 97%
    04:00 +15°C° 0.1 mm 1 m/s 743 mmHg 97%
    05:00 +15°C° 0.1 mm 1 m/s 743 mmHg 97%
    06:00 +15°C° 0 mm 1 m/s 743 mmHg 94%
    07:00 +16°C° 0 mm 1 m/s 743 mmHg 92%
    08:00 +16°C° 0 mm 1 m/s 744 mmHg 89%
    09:00 +17°C° 0 mm 2 m/s 743 mmHg 82%
    10:00 +19°C° 0 mm 2 m/s 743 mmHg 75%
    11:00 +20°C° 0 mm 3 m/s 743 mmHg 68%
    12:00 +20°C° 0 mm 3 m/s 742 mmHg 65%
    13:00 +21°C° 0 mm 2 m/s 742 mmHg 61%
    14:00 +21°C° 0 mm 2 m/s 741 mmHg 57%
    15:00 +20°C° 0 mm 2 m/s 741 mmHg 60%
    16:00 +20°C° 0 mm 1 m/s 741 mmHg 64%
    17:00 +18°C° 0 mm 1 m/s 741 mmHg 68%
    18:00 +18°C° 0 mm 1 m/s 742 mmHg 68%
    19:00 +16°C° 0 mm 2 m/s 742 mmHg 69%
    20:00 +16°C° 0 mm 2 m/s 743 mmHg 70%
    21:00 +14°C° 0 mm 3 m/s 743 mmHg 69%
    22:00 +13°C° 0 mm 3 m/s 743 mmHg 67%
    23:00 +13°C° 0 mm 3 m/s 743 mmHg 65%

    20 Decembrie, Joi

    Timp Temperatura Precipitaţii Vânt Presiune Umiditate
    00:00 +12°C° 0 mm 3 m/s 743 mmHg 63%
    01:00 +12°C° 0 mm 4 m/s 743 mmHg 61%
    02:00 +12°C° 0 mm 4 m/s 743 mmHg 59%
    03:00 +11°C° 0 mm 4 m/s 743 mmHg 56%
    04:00 +11°C° 0 mm 4 m/s 744 mmHg 54%
    05:00 +11°C° 0 mm 4 m/s 744 mmHg 51%
    06:00 +12°C° 0 mm 4 m/s 745 mmHg 51%
    07:00 +12°C° 0 mm 4 m/s 746 mmHg 50%
    08:00 +13°C° 0 mm 5 m/s 747 mmHg 50%
    09:00 +15°C° 0 mm 6 m/s 747 mmHg 44%
    10:00 +16°C° 0 mm 7 m/s 747 mmHg 39%
    11:00 +18°C° 0 mm 8 m/s 747 mmHg 33%
    12:00 +18°C° 0 mm 8 m/s 746 mmHg 33%
    13:00 +18°C° 0 mm 7 m/s 746 mmHg 33%
    14:00 +18°C° 0 mm 7 m/s 746 mmHg 32%
    15:00 +16°C° 0 mm 6 m/s 746 mmHg 36%
    16:00 +15°C° 0 mm 5 m/s 746 mmHg 39%
    17:00 +13°C° 0 mm 4 m/s 747 mmHg 43%
    18:00 +12°C° 0 mm 4 m/s 747 mmHg 43%
    19:00 +12°C° 0 mm 3 m/s 748 mmHg 44%
    20:00 +11°C° 0 mm 3 m/s 748 mmHg 45%
    21:00 +11°C° 0 mm 3 m/s 748 mmHg 46%
    22:00 +10°C° 0 mm 3 m/s 748 mmHg 47%
    23:00 +10°C° 0 mm 3 m/s 748 mmHg 47%
    Arată mai mult